Ashland, MO

1:25 PM CDT on July 25, 2016 (GMT -0500)
Columbia Regional

Weather History for KCOU - August, 2013

Change the Weather History Date:

Monday, August 19, 2013

  Actual Average Record
Temperature  
Mean Temperature 74 °F 76 °F  
Max Temperature 85 °F 87 °F 104 °F (1936)
Min Temperature 62 °F 65 °F 52 °F (1897)
Degree Days  
Heating Degree Days 0 0  
Month to date heating degree days 0 0  
Since 1 June heating degree days 6 11  
Since 1 July heating degree days 0 0  
Cooling Degree Days 9 11  
Month to date cooling degree days 144 226  
Year to date cooling degree days 867 959  
Since 1 June cooling degree days 733 856  
Growing Degree Days 23 (Base 50)    
Moisture  
Dew Point 63 °F    
Average Humidity 70    
Maximum Humidity 93    
Minimum Humidity 47    
Precipitation  
Precipitation 0.00 in 0.15 in 3.08 in (1904)
Month to date precipitation 1.87 2.63  
Year to date precipitation 33.08 28.02  
Snow  
Snow 0.00 in 0.00 in 0.00 in (2013)
Month to date snowfall 0.0 0.0  
Since 1 June snowfall 0.0 0.0  
Since 1 July snowfall 0.0 0.0  
Snow Depth 0.00 in    
Sea Level Pressure  
Sea Level Pressure 30.08 in    
Wind  
Wind Speed 4 mph (SSE)    
Max Wind Speed 10 mph    
Max Gust Speed 13 mph    
Visibility 10 miles    
Events      
T = Trace of Precipitation, MM = Missing Value Source: NWS Daily Summary

Daily Weather History Graph

Daily Weather History Graph

Search for Another Location

Airport or City:

Trip Planner

Search our weather history database for the weather conditions in past years. The results will help you decide how hot, cold, wet, or windy it might be!

Date:

Astronomy

Aug. 19, 2013 Rise Set
Actual Time 6:26 AM CDT 7:57 PM CDT
Civil Twilight 5:58 AM CDT 8:25 PM CDT
Nautical Twilight 5:24 AM CDT 8:59 PM CDT
Astronomical Twilight 4:48 AM CDT 9:35 PM CDT
Moon 6:49 PM CDT (8/19) 4:46 AM CDT (8/19)
Length of Visible Light 14h 27m
Length of Day
13h 31m
Waxing Gibbous, 97% of the Moon is Illuminated
Aug 19
Waxing Gibbous
Aug 20
Full
Aug 28
Last Quarter
Sep 5
New
Sep 12
First Quarter

Hourly Weather History & Observations

Time (CDT) Temp. Heat Index Dew Point Humidity Pressure Visibility Wind Dir Wind Speed Gust Speed Precip Events Conditions
12:54 AM 64.9 °F - 60.1 °F 84% 30.11 in 10.0 mi SE 3.5 mph - N/A   Clear
1:54 AM 64.9 °F - 61.0 °F 87% 30.11 in 10.0 mi ESE 3.5 mph - N/A   Clear
2:54 AM 64.9 °F - 61.0 °F 87% 30.10 in 10.0 mi ESE 4.6 mph - N/A   Clear
3:54 AM 64.0 °F - 61.0 °F 90% 30.10 in 10.0 mi ESE 5.8 mph - N/A   Clear
4:54 AM 63.0 °F - 60.1 °F 90% 30.09 in 8.0 mi ESE 4.6 mph - N/A   Clear
5:54 AM 63.0 °F - 60.1 °F 90% 30.10 in 8.0 mi ESE 4.6 mph - N/A   Clear
6:54 AM 63.0 °F - 61.0 °F 93% 30.12 in 7.0 mi SE 5.8 mph - N/A   Clear
7:54 AM 66.0 °F - 62.1 °F 87% 30.12 in 6.0 mi Calm Calm - N/A   Clear
8:54 AM 71.1 °F - 64.9 °F 81% 30.12 in 9.0 mi South 3.5 mph - N/A   Clear
9:54 AM 75.9 °F - 66.0 °F 71% 30.12 in 10.0 mi Variable 4.6 mph - N/A   Clear
10:54 AM 78.1 °F - 64.0 °F 62% 30.13 in 10.0 mi Variable 5.8 mph - N/A   Clear
11:54 AM 80.1 °F 81.7 °F 64.0 °F 58% 30.12 in 10.0 mi Variable 3.5 mph - N/A   Partly Cloudy
12:54 PM 82.0 °F 83.4 °F 64.0 °F 54% 30.10 in 10.0 mi South 6.9 mph - N/A   Mostly Cloudy
1:54 PM 82.9 °F 83.3 °F 61.0 °F 47% 30.09 in 10.0 mi Variable 3.5 mph - N/A   Partly Cloudy
2:54 PM 82.9 °F 84.4 °F 64.0 °F 53% 30.07 in 10.0 mi South 5.8 mph - N/A   Partly Cloudy
3:54 PM 84.0 °F 84.9 °F 63.0 °F 49% 30.05 in 10.0 mi SSW 8.1 mph - N/A   Clear
4:54 PM 82.9 °F 84.4 °F 64.0 °F 53% 30.04 in 10.0 mi South 5.8 mph - N/A   Scattered Clouds
5:54 PM 82.9 °F 83.7 °F 62.1 °F 49% 30.03 in 10.0 mi WSW 6.9 mph - N/A   Partly Cloudy
6:54 PM 81.0 °F 82.5 °F 64.0 °F 56% 30.02 in 10.0 mi SW 4.6 mph - N/A   Clear
7:54 PM 78.1 °F - 64.0 °F 62% 30.03 in 10.0 mi Calm Calm - N/A   Clear
8:54 PM 75.0 °F - 64.0 °F 69% 30.03 in 10.0 mi Calm Calm - N/A   Clear
9:54 PM 75.0 °F - 64.0 °F 69% 30.05 in 10.0 mi SSE 3.5 mph - N/A   Clear
10:54 PM 72.0 °F - 64.0 °F 76% 30.05 in 10.0 mi SE 4.6 mph - N/A   Clear
11:54 PM 71.1 °F - 64.0 °F 78% 30.05 in 10.0 mi SSE 4.6 mph - N/A   Clear